Location: Borovka
(49.7741°N, 14.5280°E)
Time: 02:41:44
(UTC+00:00)

ESTCUBE 1 - Pass Details

Date: 14 March 2026
Orbit: 620 x 631 km, 97.7° (Epoch: 13 April)

Event Time Altitude Azimuth Distance (km) Brightness Sun altitude
Exits shadow 18:24:59 19° 77° (ENE) 1,522 ? -13.6°
Maximum altitude 18:25:53 20° 61° (ENE) 1,472 ? -13.8°
Drops below altitude 10° 18:29:02 10° 15° (NNE) 2,017 ? -14.3°
Sets 18:31:43 0° 358° (N) 2,932 ? -14.7°
